Location: Holyhead Bay
(53.3667°N, 4.6667°W)
Time: 18:32:24
(UTC+00:00)

SJ-11-01 - Pass Details

Date: 24 November 2020
Orbit: 683 x 701 km, 98.0° (Epoch: 17 January)

Event Time Altitude Azimuth Distance (km) Brightness Sun altitude
Exits shadow 18:37:45 52° 92° (E) 874 4.4 -21.2°
Maximum altitude 18:38:14 54° 69° (ENE) 851 4.3 -21.3°
Drops below altitude 10° 18:42:52 10° 353° (N) 2,178 6.9 -22.0°
Sets 18:45:11 0° 349° (NNW) 3,102 7.7 -22.3°
